CW8014 Weather Reports


time (UTC)temp
C
wind
direction
speed
KPH
gust
KPH
rain 1hr
cm
rain 24hr
cm
rain mn
cm
humidity
%
barometer
mb
20260902030406 12 157 3.2 8.0 0.00 0.00 0.00 95 1019.6
20260902025406 12 183 3.2 9.7 0.00 0.00 0.00 95 1019.7
20260902024406 12 159 4.8 8.0 0.00 0.00 0.00 95 1019.8
20260902022407 12 163 4.8 9.7 0.00 0.00 0.00 96 1019.8
20260902021407 11 166 3.2 6.4 0.00 0.00 0.00 96 1019.9
20260902020407 11 167 1.6 4.8 0.00 0.00 0.00 96 1019.7
20260902015406 11 169 1.6 6.4 0.00 0.00 0.00 96 1019.7
20260902014408 11 168 3.2 6.4 0.00 0.00 0.00 95 1019.7
20260902012407 11 177 1.6 3.2 0.00 0.00 0.00 95 1019.8
20260902011407 11 184 0.0 3.2 0.00 0.00 0.00 95 1019.9
20260902005407 11 185 0.0 3.2 0.00 0.00 0.00 95 1019.9
20260902004407 11 202 1.6 4.8 0.00 0.00 0.00 95 1019.9
20260902003407 11 250 0.0 3.2 0.00 0.00 0.00 94 1020.0
20260902002407 11 250 0.0 1.6 0.00 0.00 0.00 95 1019.9
20260902001407 11 250 0.0 0.0 0.00 0.00 0.00 94 1019.9
20260902000408 11 250 0.0 0.0 0.00 0.00 0.00 94 1020.0
20260901235407 11 250 0.0 0.0 0.00 0.00 0.00 94 1020.0
20260901234407 11 250 0.0 1.6 0.00 0.00 0.00 94 1019.9
20260901233407 11 250 0.0 0.0 0.00 0.00 0.00 94 1019.9
20260901232407 11 250 0.0 1.6 0.00 0.00 0.00 93 1019.8
20260901230407 12 250 0.0 0.0 0.00 0.00 0.00 93 1020.1
20260901224407 12 250 0.0 1.6 0.00 0.00 0.00 93 1020.3
20260901223407 12 250 0.0 1.6 0.00 0.00 0.00 93 1020.3
20260901222408 12 263 0.0 0.0 0.00 0.00 0.00 93 1020.6
20260901221407 12 263 0.0 1.6 0.00 0.00 0.00 93 1020.6
20260901220407 12 263 0.0 1.6 0.00 0.00 0.00 93 1020.7
20260901215411 12 263 0.0 1.6 0.00 0.00 0.00 93 1020.6
20260901214410 12 263 0.0 1.6 0.00 0.00 0.00 92 1020.7
20260901213411 12 263 0.0 0.0 0.00 0.00 0.00 92 1020.8
20260901212410 12 263 0.0 3.2 0.00 0.00 0.00 92 1020.8
20260901211410 12 263 0.0 1.6 0.00 0.00 0.00 92 1020.8
20260901205410 13 263 0.0 1.6 0.00 0.00 0.00 91 1020.6
20260901204411 13 263 0.0 1.6 0.00 0.00 0.00 91 1020.4
20260901203410 13 263 0.0 1.6 0.00 0.00 0.00 90 1020.4
20260901202410 13 263 0.0 1.6 0.00 0.00 0.00 89 1020.3
20260901201411 13 263 0.0 0.0 0.00 0.00 0.00 88 1020.2
20260901200410 13 263 0.0 1.6 0.00 0.00 0.00 88 1020.3
20260901195410 13 263 0.0 1.6 0.00 0.00 0.00 87 1020.3
20260901194410 14 263 0.0 3.2 0.00 0.00 0.00 86 1020.2
20260901193410 14 263 0.0 1.6 0.00 0.00 0.00 85 1020.2
20260901192410 15 263 0.0 3.2 0.00 0.00 0.00 84 1020.3
20260901190410 15 265 0.0 4.8 0.00 0.00 0.00 82 1020.3
20260901183410 16 273 1.6 4.8 0.00 0.00 0.00 77 1020.2
20260901182410 17 275 3.2 6.4 0.00 0.00 0.00 75 1020.1
20260901181410 17 300 3.2 9.7 0.00 0.00 0.00 74 1020.0
20260901180410 17 264 4.8 12.9 0.00 0.00 0.00 74 1020.1
20260901175410 17 275 6.4 16.1 0.00 0.00 0.00 73 1020.0
20260901174410 18 312 4.8 11.3 0.00 0.00 0.00 73 1019.9
20260901172410 18 311 3.2 9.7 0.00 0.00 0.00 71 1019.8
20260901170411 19 286 4.8 12.9 0.00 0.00 0.00 69 1019.6
20260901165410 19 289 3.2 14.5 0.00 0.00 0.00 70 1019.5
20260901164410 19 290 6.4 12.9 0.00 0.00 0.00 68 1019.5
20260901163410 20 287 9.7 20.9 0.00 0.00 0.00 65 1019.5
20260901160411 20 234 8.0 20.9 0.00 0.00 0.00 66 1019.5
20260901155410 20 298 11.3 25.7 0.00 0.00 0.00 63 1019.3
20260901154410 20 279 9.7 17.7 0.00 0.00 0.00 65 1019.3
20260901150410 20 294 12.9 25.7 0.00 0.00 0.00 63 1019.1
20260901145410 20 283 9.7 22.5 0.00 0.00 0.00 62 1019.1
20260901144410 20 338 8.0 17.7 0.00 0.00 0.00 62 1019.1
20260901143410 21 309 9.7 19.3 0.00 0.00 0.00 59 1019.1
20260901142404 22 289 12.9 25.7 0.00 0.00 0.00 57 1019.0
20260901141404 21 321 9.7 27.4 0.00 0.00 0.00 62 1018.9
20260901140406 22 211 12.9 22.5 0.00 0.00 0.00 58 1018.9
20260901135405 22 271 9.7 20.9 0.00 0.20 0.00 59 1018.8
20260901134406 21 300 11.3 19.3 0.00 0.20 0.00 64 1018.8
20260901132404 21 286 8.0 29.0 0.00 0.20 0.00 61 1018.7
20260901131404 21 279 12.9 24.1 0.00 0.20 0.00 60 1018.8
20260901125404 21 311 11.3 24.1 0.00 0.23 0.00 62 1018.7
20260901124404 21 338 12.9 27.4 0.00 0.23 0.00 61 1018.7
20260901123404 22 321 11.3 20.9 0.00 0.23 0.00 66 1018.7
20260901122404 21 265 8.0 17.7 0.00 0.23 0.00 66 1018.6
20260901121404 20 331 11.3 29.0 0.00 0.23 0.00 67 1018.6
20260901120404 21 219 14.5 33.8 0.00 0.23 0.00 64 1018.7
20260901115404 20 257 9.7 25.7 0.00 0.28 0.00 68 1018.5
20260901113405 21 313 11.3 25.7 0.00 0.28 0.00 70 1018.6
20260901112405 20 339 11.3 22.5 0.00 0.28 0.00 71 1018.6
20260901111404 20 297 11.3 22.5 0.00 0.28 0.00 69 1018.6
20260901110404 20 248 12.9 24.1 0.00 0.28 0.00 70 1018.6
20260901105406 20 284 9.7 25.7 0.00 0.41 0.00 71 1018.6
20260901103404 20 284 8.0 20.9 0.00 0.41 0.00 74 1018.6
20260901102404 18 324 12.9 25.7 0.00 0.41 0.00 76 1018.7
20260901101404 18 295 9.7 22.5 0.00 0.41 0.00 77 1018.5
20260901100404 18 259 9.7 20.9 0.00 0.41 0.00 77 1018.6
20260901094404 18 281 9.7 20.9 0.00 0.41 0.00 78 1018.4
20260901093404 18 317 11.3 24.1 0.00 0.41 0.00 79 1018.3
20260901092404 18 305 11.3 24.1 0.00 0.41 0.00 79 1018.2
20260901091404 18 50 12.9 27.4 0.00 0.41 0.00 78 1018.1
20260901090404 18 242 12.9 27.4 0.00 0.41 0.00 77 1018.1
20260901085404 18 303 11.3 24.1 0.00 0.41 0.00 79 1017.9
20260901084405 18 277 9.7 24.1 0.00 0.41 0.00 79 1017.8
20260901081404 18 225 9.7 20.9 0.00 0.41 0.00 86 1017.5
20260901080404 18 254 6.4 19.3 0.00 0.41 0.00 88 1017.3
20260901074404 17 225 8.0 20.9 0.00 0.41 0.00 91 1017.2
20260901073404 17 293 8.0 20.9 0.00 0.41 0.00 92 1017.2
20260901072404 16 261 8.0 19.3 0.00 0.41 0.00 93 1017.1
20260901070404 16 258 6.4 17.7 0.00 0.41 0.00 95 1017.1
20260901065404 16 254 4.8 14.5 0.00 0.41 0.00 96 1017.0
20260901064404 15 290 6.4 14.5 0.00 0.41 0.00 96 1017.0
20260901062404 15 209 1.6 8.0 0.00 0.41 0.00 96 1016.8
20260901061405 15 294 3.2 9.7 0.00 0.41 0.00 96 1016.6
20260901060404 15 211 3.2 11.3 0.00 0.41 0.00 96 1016.5
20260901055404 15 209 3.2 8.0 0.00 0.41 0.00 96 1016.5
20260901054405 14 157 1.6 8.0 0.00 0.41 0.00 96 1016.5
20260901053404 14 190 1.6 4.8 0.00 0.41 0.00 96 1016.3
20260901052405 14 178 1.6 8.0 0.00 0.41 0.00 96 1016.3
20260901050404 14 209 1.6 4.8 0.00 0.41 0.00 96 1016.1
20260901045404 14 190 3.2 6.4 0.00 0.41 0.00 96 1016.1
20260901044404 14 229 3.2 8.0 0.00 0.41 0.00 96 1016.0
20260901043404 14 209 1.6 4.8 0.00 0.41 0.00 96 1016.0
20260901042404 14 160 3.2 8.0 0.00 0.41 0.00 96 1015.9
20260901040404 14 192 1.6 3.2 0.00 0.41 0.00 95 1015.6
20260901035404 15 189 1.6 4.8 0.00 0.43 0.00 96 1015.7
20260901034404 15 209 1.6 4.8 0.00 0.43 0.00 95 1015.6
20260901033404 15 175 3.2 8.0 0.00 0.43 0.00 95 1015.6
20260901032404 15 234 1.6 9.7 0.00 0.43 0.00 95 1015.6
20260901031405 15 162 1.6 6.4 0.00 0.43 0.00 95 1015.6